Погода в Новом Токсово

Россия / Санкт-Петербург и Ленинградская область     60°12′15″N   30°33′41″E
темп.,
°C
ветер,
м/с
пор.,
м/с
влажн.,
%
обл.,
%
осадки,
мм/ч
давл.,
гПа
погр.,
м
28 июля, ср
ср2800:00+19ююв1156100 0.0 101511
03:00+17вюв116698 0.0 101417
06:00+18юв1268100 0.0 101238
09:00+23ююв2449100 0.0 1011337
12:00+27ю2444100 0.0 10101159
15:00+26з3250100 0.1 10091094
18:00+20ссв3582100 1.6 1008250
21:00+17в269795 3.1 1007199
29 июля, чт
чт2900:00+16юв119875 0.1 100626
03:00+16юз259785 0.1 100498
06:00+17юз289692 0.1 1003218
09:00+19зюз4984100 0.1 1003563
12:00+21зюз486595 0.1 1002890
15:00+24юз595243 0.1 10011686
18:00+24зюз595397 0.0 10001371
21:00+20зюз411674 0.0 1000705
30 июля, пт
пт3000:00+16юз3119299 0.0 1001333
03:00+15юз2895100 0.0 1000208
06:00+17зюз410805 0.0 1000621
09:00+19юз586288 0.0 10001100
12:00+22зюз684492 0.0 9992124
15:00+20юз585860 0.6 9991277
18:00+20зюз4958100 1.1 9991384
21:00+18юз51165100 1.3 997714
31 июля, сб
сб3100:00+13ю3119119 0.7 997364
03:00+13ю41293100 0.7 995429
06:00+13ю51196100 2.8 994662
09:00+15юз6129256 3.5 994892
12:00+20зюз695954 0.6 9961509
15:00+21зюз710496 0.6 9981510
18:00+21зюз57495 0.0 999988
21:00+16юз37800 0.0 1000197
1 августа, вс
вс100:00+14юз2693100 0.0 1001116
03:00+13ююз2390100 0.0 100041
06:00+15ю289787 1.0 999254
09:00+17ююз489149 2.1 998517
12:00+21юз685971 0.2 9981527
15:00+20юз596790 0.7 9991425
18:00+18зюз5128513 1.5 10001362
21:00+17зюз6148133 2.0 10001136